Terminal Aerodrome Forecast
Issued by NWS

Home | Current Version | Previous Version | Text Only | Print | Product List | Glossary On
Versions: 1 2 3 4 5 6 7 8 9 10 11 12 13 14 15 16 17 18 19 20 21 22 23 24 25 26 27 28 29 30 31 32 33 34 35 36 37 38 39 40 41 42 43 44 45 46 47 48 49 50
000
FTAK31 PANC 260840 AAA
TAFACD
TAF AMD
PACD 260840Z 2609/2706 30011KT P6SM VCSH SCT015 OVC050
      TEMPO 2609/2612 -RA BKN015
     FM261200 28009KT 6SM -DZ BR OVC008
     FM262300 29011KT P6SM -SHRA OVC015=

USA.gov is the U.S. government's official web portal to all federal, state and local government web resources and services.